Location: Narrabri
(30.3170°S, 149.7830°E)
Time: 09:36:42
(UTC+11:00)

Envisat - Pass Details

Date: 12 October 2017
Orbit: 764 x 766 km, 98.2° (Epoch: 23 October)

Event Time Altitude Azimuth Distance (km) Brightness Sun altitude
Rises 22:43:53 0° 190° (S) 3,263 6.9 -41.9°
Reaches altitude 10° 22:47:03 10° 211° (SSW) 2,328 6.1 -42.4°
Enters shadow 22:48:40 14° 228° (SW) 2,026 5.7 -42.6°
